• In Belarus
  • List of Countries
  • For 7 days
  • Water Temperature
  • Satellite Maps
  • Weather Map
  • Weather Widgets
  • user-avatar
    Login

    Hourly Weather Yaremcha

    Today, 20 June, Wednesday

    Time Temperature Precipitation Wind Pressure Humidity
    00:00 +20°C° 0 mm 1 mps 711 mmHg 91%
    01:00 +20°C° 0 mm 1 mps 711 mmHg 93%
    02:00 +18°C° 0 mm 2 mps 711 mmHg 98%
    03:00 +18°C° 0 mm 2 mps 711 mmHg 100%
    04:00 +18°C° 0 mm 2 mps 711 mmHg 100%
    05:00 +18°C° 0 mm 2 mps 712 mmHg 100%
    06:00 +19°C° 0 mm 1 mps 712 mmHg 100%
    07:00 +20°C° 0 mm 1 mps 712 mmHg 100%
    08:00 +20°C° 0 mm 1 mps 712 mmHg 100%
    09:00 +21°C° 0 mm 1 mps 712 mmHg 100%
    10:00 +20°C° 0 mm 2 mps 713 mmHg 100%
    11:00 +20°C° 0 mm 2 mps 713 mmHg 100%
    12:00 +22°C° 0 mm 1 mps 713 mmHg 100%
    13:00 +23°C° 0 mm 2 mps 712 mmHg 100%
    14:00 +24°C° 0 mm 2 mps 713 mmHg 98%
    15:00 +24°C° 0.5 mm 2 mps 712 mmHg 98%
    16:00 +24°C° 0.3 mm 2 mps 712 mmHg 100%
    17:00 +23°C° 1 mm 2 mps 712 mmHg 100%
    18:00 +23°C° 3.7 mm 2 mps 712 mmHg 100%
    19:00 +22°C° 2.6 mm 1 mps 711 mmHg 100%
    20:00 +22°C° 0.7 mm 1 mps 711 mmHg 100%
    21:00 +19°C° 0.4 mm 0 mps 711 mmHg 100%
    22:00 +19°C° 0 mm 0 mps 711 mmHg 100%
    23:00 +21°C° 0 mm 1 mps 711 mmHg 100%

    Tomorrow, 21 June, Thursday

    Time Temperature Precipitation Wind Pressure Humidity
    00:00 +21°C° 0 mm 1 mps 711 mmHg 97%
    01:00 +21°C° 0 mm 1 mps 711 mmHg 96%
    02:00 +20°C° 0 mm 1 mps 711 mmHg 94%
    03:00 +20°C° 0 mm 1 mps 710 mmHg 93%
    04:00 +20°C° 0 mm 1 mps 710 mmHg 93%
    05:00 +19°C° 0 mm 2 mps 710 mmHg 91%
    06:00 +19°C° 0 mm 2 mps 709 mmHg 92%
    07:00 +21°C° 0 mm 2 mps 710 mmHg 94%
    08:00 +23°C° 0 mm 1 mps 710 mmHg 94%
    09:00 +24°C° 0 mm 1 mps 710 mmHg 89%
    10:00 +25°C° 0 mm 1 mps 710 mmHg 86%
    11:00 +26°C° 0 mm 2 mps 709 mmHg 85%
    12:00 +26°C° 0 mm 2 mps 709 mmHg 82%
    13:00 +27°C° 0 mm 2 mps 708 mmHg 80%
    14:00 +27°C° 0 mm 3 mps 707 mmHg 77%
    15:00 +28°C° 0 mm 3 mps 707 mmHg 77%
    16:00 +27°C° 0 mm 4 mps 706 mmHg 81%
    17:00 +27°C° 0 mm 4 mps 706 mmHg 83%
    18:00 +26°C° 0 mm 5 mps 705 mmHg 87%
    19:00 +25°C° 0 mm 4 mps 705 mmHg 89%
    20:00 +23°C° 0 mm 5 mps 704 mmHg 88%
    21:00 +22°C° 0 mm 5 mps 703 mmHg 87%
    22:00 +22°C° 0 mm 5 mps 703 mmHg 89%
    23:00 +21°C° 0 mm 6 mps 703 mmHg 91%

    Day after tomorrow, 22 June, Friday

    Time Temperature Precipitation Wind Pressure Humidity
    00:00 +21°C° 0 mm 6 mps 703 mmHg 97%
    01:00 +21°C° 0 mm 6 mps 702 mmHg 98%
    02:00 +21°C° 0 mm 5 mps 703 mmHg 99%
    03:00 +20°C° 0 mm 4 mps 703 mmHg 97%
    04:00 +20°C° 0 mm 2 mps 702 mmHg 97%
    05:00 +21°C° 0 mm 1 mps 702 mmHg 98%
    06:00 +20°C° 0 mm 2 mps 703 mmHg 100%
    07:00 +16°C° 0.2 mm 5 mps 703 mmHg 100%
    08:00 +15°C° 0 mm 4 mps 703 mmHg 100%
    09:00 +14°C° 0.1 mm 4 mps 703 mmHg 100%
    10:00 +14°C° 0.9 mm 4 mps 704 mmHg 100%
    11:00 +13°C° 0.8 mm 5 mps 704 mmHg 100%
    12:00 +12°C° 1.3 mm 4 mps 703 mmHg 100%
    13:00 +13°C° 0.3 mm 3 mps 703 mmHg 100%
    14:00 +15°C° 0 mm 4 mps 703 mmHg 100%
    15:00 +15°C° 0 mm 4 mps 703 mmHg 99%
    16:00 +15°C° 0 mm 4 mps 703 mmHg 96%
    17:00 +15°C° 0 mm 5 mps 703 mmHg 99%
    18:00 +13°C° 0 mm 4 mps 703 mmHg 100%
    19:00 +13°C° 0 mm 4 mps 703 mmHg 96%
    20:00 +12°C° 0 mm 4 mps 704 mmHg 94%
    21:00 +12°C° 0 mm 3 mps 704 mmHg 90%
    22:00 +11°C° 0 mm 3 mps 704 mmHg 93%
    23:00 +11°C° 0 mm 3 mps 704 mmHg 92%

    23 June, Saturday

    Time Temperature Precipitation Wind Pressure Humidity
    00:00 +12°C° 0 mm 2 mps 705 mmHg 92%
    01:00 +10°C° 0 mm 2 mps 704 mmHg 93%
    02:00 +10°C° 0 mm 2 mps 704 mmHg 93%
    03:00 +9°C° 0 mm 2 mps 704 mmHg 93%
    04:00 +9°C° 0 mm 2 mps 704 mmHg 93%
    05:00 +9°C° 0 mm 2 mps 705 mmHg 94%
    06:00 +9°C° 0 mm 2 mps 705 mmHg 98%
    07:00 +10°C° 0 mm 3 mps 705 mmHg 97%
    08:00 +11°C° 0 mm 3 mps 706 mmHg 98%
    09:00 +13°C° 0 mm 3 mps 706 mmHg 93%
    10:00 +14°C° 0 mm 3 mps 706 mmHg 88%
    11:00 +16°C° 0 mm 3 mps 706 mmHg 87%
    12:00 +16°C° 0 mm 3 mps 706 mmHg 95%
    13:00 +16°C° 1.8 mm 2 mps 706 mmHg 99%
    14:00 +17°C° 0.1 mm 2 mps 706 mmHg 91%

    24 June, Sunday

    Time Temperature Precipitation Wind Pressure Humidity

    25 June, Monday

    Time Temperature Precipitation Wind Pressure Humidity
    Show more